Location: Murphys Corner
(39.1062°N, 77.8244°W)
Time: 20:02:09
(UTC+00:00)

Envisat - Pass Details

Date: 11 February 2023
Orbit: 763 x 765 km, 98.2° (Epoch: 24 March)

Event Time Altitude Azimuth Distance (km) Brightness Sun altitude
Rises 10:45:30 0° 352° (N) 3,238 6.1 -16.5°
Reaches altitude 10° 10:48:56 10° 328° (NNW) 2,307 5.1 -15.8°
Enters shadow 10:49:04 10° 326° (NNW) 2,280 5.1 -15.8°
